Wind_Speed
6 5 6 6 7 8 8 8 8 8 8 7 8 8 8 9 10 10 11 12 12 12 13 14 13 13 13 14 14 15 16 16 17 17 17 17 18 18 18 18 18 18 18
5 6 6 5 6 7 8 7 8 8 7 7 7 7 7 8 9 9 10 11 12 12 13 13 13 13 13 14 14 15 16 16 16 16 16 17 17 17 17 18 18 19 19
6 6 5 5 5 6 7 7 7 7 7 7 7 7 7 8 8 9 10 10 11 12 13 13 13 13 14 15 15 15 15 15 15 15 15 16 17 17 17 17 18 19 19
6 6 5 5 6 6 6 6 6 6 6 6 7 7 7 7 8 9 10 10 10 11 12 13 14 14 14 14 14 14 15 15 16 15 15 15 16 16 17 17 18 18 19
5 6 5 5 6 6 6 6 6 5 5 6 7 7 7 7 8 9 9 10 10 11 11 12 13 13 13 13 14 14 14 14 15 15 15 15 16 16 16 16 17 18 18
6 6 6 6 6 6 6 6 6 6 6 6 6 7 8 8 8 9 9 10 10 10 11 12 12 12 12 12 13 13 14 14 14 14 15 15 15 16 16 16 17 17 17
5 6 6 6 6 6 6 6 6 6 7 7 6 7 8 8 8 9 9 10 10 10 11 11 11 12 12 13 13 13 13 14 14 14 14 15 15 15 15 16 16 16 16
5 5 5 5 5 5 6 6 6 7 7 7 7 7 7 8 8 9 9 10 10 11 12 12 12 12 12 13 13 13 13 13 13 13 13 14 14 14 15 14 15 15 16
5 4 5 5 6 6 6 7 7 7 7 7 8 8 8 8 8 9 9 9 10 11 12 13 12 12 12 12 12 12 12 12 12 12 12 13 13 14 15 15 15 15 16
5 5 5 5 6 6 7 7 7 7 8 9 8 8 9 10 10 10 10 10 10 11 11 11 12 12 12 12 11 11 11 11 12 12 12 13 13 14 15 15 16 16 15
5 5 5 5 5 6 6 6 7 8 8 9 8 8 9 9 10 11 11 11 11 10 10 10 10 11 12 12 12 11 12 12 12 12 13 13 14 14 14 15 15 16 15
5 5 5 6 6 6 6 7 8 9 9 9 9 9 10 10 10 10 11 11 10 10 10 10 11 11 11 12 12 12 12 12 12 13 14 14 15 15 14 14 14 14 14
7 7 7 7 7 7 7 8 9 9 9 10 10 10 10 10 10 10 11 11 11 11 11 11 11 11 12 12 12 12 12 13 13 14 14 14 14 14 14 14 14 14 14
8 9 8 8 8 8 8 9 9 9 9 9 9 9 9 9 9 9 10 11 11 11 11 11 11 12 12 12 12 12 12 12 13 13 13 13 13 13 14 14 14 13 14
9 9 10 10 9 9 9 10 10 9 9 8 8 9 9 9 10 10 10 10 11 10 11 11 12 12 12 12 12 12 12 13 13 13 13 13 12 12 13 13 13 13 13
9 10 10 10 10 10 10 10 10 10 9 9 9 10 10 10 10 10 11 11 11 11 11 11 11 12 12 12 12 13 13 13 14 14 14 13 13 14 14 14 14 14 14
10 10 11 11 12 12 11 11 10 10 10 11 11 11 11 11 11 11 11 11 12 12 12 11 11 11 12 13 13 14 14 14 14 14 14 14 14 14 15 15 16 16 16
11 11 12 12 12 13 12 12 11 11 11 12 12 12 12 12 12 12 12 12 12 12 12 12 12 12 13 13 14 14 14 14 14 14 14 14 15 15 16 17 17 17 17
12 12 13 13 13 13 13 12 13 13 13 13 13 13 13 13 13 13 13 13 13 13 13 13 13 13 13 14 14 15 15 15 15 15 15 16 16 16 17 17 18 18 18
14 13 14 14 14 14 14 13 14 14 14 14 14 14 14 14 14 14 14 14 14 14 14 14 14 15 15 15 15 15 15 15 16 16 16 17 17 17 18 18 18 19 19
15 15 15 15 15 15 15 15 15 15 15 15 15 15 15 15 15 15 15 15 15 15 15 15 16 16 16 16 17 17 17 17 17 17 17 17 18 18 18 18 18 18 19
16 16 16 16 17 17 17 17 17 16 16 16 17 17 16 16 16 16 17 17 17 17 17 17 18 18 18 18 17 17 17 18 18 18 18 18 18 18 18 18 19 20 20
18 18 18 18 18 18 18 17 18 17 17 17 18 18 18 18 18 17 18 18 18 19 19 19 20 20 19 19 19 19 19 19 19 19 19 19 19 19 19 19 20 21 22
20 20 20 20 19 19 19 19 19 19 18 18 18 19 19 19 19 19 19 20 20 20 21 21 21 21 20 20 20 19 20 20 20 21 21 21 20 20 20 20 21 22 22
21 22 22 21 21 21 21 21 20 20 20 19 20 20 20 21 21 21 21 21 21 21 22 22 22 21 21 21 20 20 20 20 20 20 20 21 21 22 22 21 22 22 22
23 22 22 23 23 22 22 22 22 21 21 21 21 21 21 22 23 23 23 22 22 22 22 22 22 21 21 21 21 21 21 21 21 21 21 21 22 22 22 23 23 23 23
Wind_Direction
270 271 267 263 265 269 269 270 271 273 260 258 259 262 265 262 262 261 259 257 257 255 258 259 260 260 264 264 264 264 266 268 267 266 266 266 265 265 265 266 268 268 268
275 270 268 268 267 269 270 273 278 275 266 259 262 265 269 270 271 268 267 265 262 259 260 259 261 263 265 265 264 264 264 266 267 267 268 268 267 267 267 269 269 270 270
276 273 271 271 274 272 273 271 279 283 273 267 268 272 273 272 271 270 270 268 263 262 261 260 262 265 265 265 265 266 266 265 266 269 269 269 268 268 268 269 271 273 273
275 271 271 272 275 280 288 280 281 286 283 275 270 276 275 271 272 271 272 270 265 264 264 262 264 265 266 264 265 266 266 267 269 269 272 271 271 272 271 272 273 273 273
278 276 275 277 275 278 286 289 285 284 291 283 271 272 275 273 278 279 276 276 273 269 267 266 267 269 267 264 265 266 268 269 270 271 273 273 272 270 269 271 273 273 272
284 282 283 282 282 278 279 284 287 289 293 291 278 275 275 278 280 279 277 275 274 272 271 269 270 272 272 269 268 268 269 270 273 274 275 277 274 271 272 274 275 275 274
287 285 281 281 281 279 280 284 285 289 288 287 282 281 281 281 280 278 272 273 274 272 271 271 271 273 273 271 269 269 271 272 272 275 276 276 278 277 276 277 278 278 276
289 284 281 279 275 278 282 284 288 291 289 287 283 284 284 282 282 280 278 276 277 274 275 274 274 274 274 273 269 269 271 273 270 270 274 276 278 278 277 279 279 280 280
286 283 275 270 274 279 284 285 287 288 290 290 290 291 287 285 286 284 283 282 280 276 273 273 270 269 272 274 272 271 272 271 270 273 277 277 277 278 279 279 281 283 281
288 287 280 277 279 284 288 292 291 288 289 291 291 291 290 287 283 283 284 286 286 280 275 274 272 271 271 269 272 272 272 272 271 271 274 277 278 279 280 280 281 281 280
303 300 294 289 288 289 293 295 296 290 291 293 290 288 291 289 286 284 285 284 285 283 281 277 275 274 272 271 273 273 273 273 270 270 271 273 276 279 280 282 284 280 277
304 303 301 297 293 292 294 297 298 292 289 288 289 290 289 290 289 288 288 285 283 284 284 280 278 277 276 273 275 274 273 275 275 274 274 276 277 278 280 281 283 280 277
295 295 297 297 292 291 292 295 296 296 292 290 290 292 292 291 291 291 289 285 283 283 283 281 281 278 276 275 274 274 274 275 277 277 277 277 277 278 279 279 282 282 280
291 291 295 295 292 292 293 294 294 294 293 295 295 296 297 297 297 296 293 289 285 284 284 283 281 277 276 277 277 277 277 278 280 279 277 276 275 278 279 279 280 280 279
289 291 291 292 292 293 291 290 292 292 294 295 294 296 297 297 299 298 297 294 292 290 289 288 285 279 277 277 279 278 278 281 283 282 283 279 279 282 283 282 283 283 282
290 289 289 289 292 295 294 291 290 291 291 293 293 294 296 296 298 297 295 293 293 293 294 293 289 284 278 276 278 279 279 280 281 283 287 284 284 286 285 284 286 285 284
288 287 287 288 289 289 289 288 287 289 290 291 292 293 294 296 296 296 295 293 292 292 293 293 292 290 285 279 278 280 281 282 282 283 284 284 284 284 284 287 287 284 283
286 287 287 287 286 285 285 283 284 285 286 288 291 291 292 294 295 294 294 294 293 292 292 293 292 292 290 286 283 282 281 280 281 284 284 285 285 284 285 286 286 285 283
285 287 286 286 285 284 281 280 281 282 284 286 288 288 289 290 291 291 293 294 293 292 291 290 291 293 293 289 286 284 282 281 282 283 284 285 285 285 284 284 286 286 286
283 283 283 283 283 282 281 279 280 280 282 285 285 285 286 286 286 288 290 290 291 291 290 291 291 292 294 291 288 284 282 282 283 283 284 285 286 286 287 288 287 286 285
283 280 283 284 283 283 281 279 279 280 280 281 282 282 284 285 284 285 286 288 289 289 290 290 290 289 290 290 288 285 283 281 282 284 284 285 286 287 288 291 290 289 287
283 280 282 284 284 284 282 279 278 281 280 280 281 280 281 282 284 285 285 285 287 288 289 290 291 290 290 288 288 287 283 280 281 283 284 285 286 286 287 290 292 291 290
282 280 279 280 281 281 279 278 277 280 281 281 281 281 281 280 282 284 284 285 285 286 287 289 290 289 289 287 286 287 284 280 280 280 281 282 283 285 285 287 290 291 291
280 279 279 279 279 279 277 276 276 277 278 280 281 281 281 280 280 282 283 283 285 286 286 287 288 286 287 285 284 285 285 282 282 281 280 280 281 282 284 287 289 291 293
279 279 278 278 278 278 277 276 276 275 276 279 280 282 282 280 279 280 281 282 283 284 285 285 286 284 284 284 284 285 284 283 283 283 280 280 281 281 283 285 287 289 292
278 278 278 279 278 277 276 274 273 274 275 278 280 282 282 281 279 279 281 282 283 282 283 283 284 283 281 281 283 285 285 284 283 282 282 282 283 282 283 285 287 290 293
Height
5858 5858 5857 5856 5856 5855 5854 5854 5854 5853 5853 5853 5853 5853 5852 5852 5852 5852 5852 5852 5852 5852 5851 5852 5852 5852 5852 5852 5851 5851 5851 5851 5851 5850 5850 5850 5850 5850 5849 5849 5849 5848 5848
5857 5856 5856 5855 5854 5853 5853 5853 5852 5852 5851 5851 5851 5851 5851 5850 5850 5850 5849 5849 5849 5849 5849 5849 5849 5849 5849 5849 5848 5848 5848 5848 5847 5847 5847 5846 5846 5846 5846 5845 5845 5845 5844
5855 5855 5854 5854 5853 5852 5852 5851 5851 5850 5850 5850 5850 5849 5849 5849 5848 5848 5847 5847 5847 5846 5846 5846 5846 5846 5846 5845 5845 5845 5845 5844 5844 5844 5843 5843 5843 5842 5842 5842 5841 5840 5840
5854 5854 5853 5853 5852 5851 5851 5850 5850 5849 5849 5848 5848 5848 5847 5847 5847 5846 5846 5845 5844 5844 5844 5844 5843 5843 5843 5842 5842 5842 5842 5841 5841 5841 5840 5840 5839 5839 5839 5838 5837 5836 5836
5853 5852 5852 5851 5851 5850 5850 5849 5848 5848 5847 5847 5847 5846 5846 5846 5845 5844 5844 5843 5842 5842 5841 5841 5841 5840 5840 5839 5839 5839 5839 5838 5838 5837 5837 5836 5836 5836 5835 5835 5833 5833 5832
5851 5851 5850 5850 5849 5849 5849 5848 5847 5847 5846 5846 5845 5845 5844 5844 5843 5842 5841 5841 5840 5840 5839 5839 5838 5838 5837 5837 5836 5836 5835 5835 5835 5834 5834 5833 5833 5832 5832 5831 5830 5829 5828
5850 5849 5849 5848 5848 5848 5848 5847 5846 5846 5845 5844 5844 5843 5843 5842 5841 5840 5839 5839 5838 5837 5837 5836 5835 5835 5835 5834 5833 5833 5832 5832 5832 5831 5831 5830 5830 5829 5828 5828 5827 5825 5824
5849 5848 5847 5847 5847 5847 5846 5846 5845 5844 5844 5843 5842 5842 5841 5841 5839 5838 5837 5837 5836 5835 5834 5833 5833 5832 5832 5831 5830 5829 5829 5829 5828 5828 5827 5827 5826 5826 5825 5824 5823 5822 5820
5847 5847 5846 5846 5845 5845 5844 5844 5843 5843 5842 5841 5841 5840 5839 5838 5837 5836 5835 5834 5833 5833 5832 5831 5830 5829 5828 5827 5827 5826 5826 5825 5825 5825 5824 5824 5823 5822 5822 5821 5820 5818 5817
5846 5845 5844 5844 5844 5843 5843 5842 5841 5841 5840 5839 5838 5837 5837 5836 5835 5834 5833 5832 5831 5830 5829 5828 5827 5826 5825 5824 5824 5823 5823 5822 5822 5822 5821 5821 5820 5819 5818 5817 5816 5815 5813
5845 5844 5843 5843 5842 5841 5841 5840 5840 5839 5838 5837 5836 5835 5834 5833 5832 5831 5831 5830 5829 5828 5826 5825 5824 5824 5823 5822 5821 5821 5820 5820 5819 5818 5818 5817 5816 5815 5815 5814 5813 5812 5811
5844 5843 5842 5841 5841 5840 5839 5838 5838 5836 5835 5834 5834 5833 5832 5830 5829 5828 5827 5827 5826 5825 5824 5822 5821 5821 5820 5819 5819 5818 5817 5817 5816 5815 5814 5814 5813 5812 5811 5810 5809 5808 5808
5842 5841 5840 5840 5839 5838 5837 5836 5835 5834 5833 5832 5831 5830 5829 5827 5826 5825 5824 5823 5823 5822 5821 5820 5819 5818 5817 5817 5816 5815 5814 5813 5813 5812 5811 5810 5809 5808 5808 5807 5806 5805 5804
5840 5839 5838 5837 5836 5835 5834 5833 5833 5831 5830 5829 5828 5827 5826 5825 5824 5823 5822 5820 5819 5819 5818 5817 5816 5815 5814 5813 5812 5812 5811 5810 5810 5809 5808 5807 5806 5805 5804 5803 5802 5802 5801
5838 5837 5836 5835 5834 5833 5832 5831 5830 5829 5828 5827 5826 5825 5824 5823 5822 5820 5819 5818 5817 5816 5815 5814 5813 5812 5811 5810 5809 5808 5808 5807 5807 5806 5805 5804 5803 5802 5801 5800 5799 5798 5797
5835 5834 5833 5832 5831 5830 5829 5828 5827 5826 5825 5825 5824 5823 5822 5820 5819 5818 5817 5815 5814 5813 5812 5811 5809 5809 5807 5807 5806 5806 5805 5804 5803 5802 5801 5800 5799 5799 5798 5797 5796 5795 5794
5832 5831 5830 5829 5828 5827 5826 5825 5824 5824 5823 5822 5821 5820 5819 5818 5817 5815 5814 5813 5812 5810 5809 5808 5807 5806 5804 5804 5803 5802 5801 5800 5800 5799 5798 5797 5796 5795 5794 5793 5792 5791 5790
5828 5827 5826 5825 5824 5823 5823 5822 5821 5821 5820 5819 5818 5817 5816 5815 5814 5812 5811 5810 5808 5807 5806 5805 5804 5803 5801 5800 5799 5798 5797 5797 5796 5795 5794 5793 5792 5791 5790 5789 5787 5786 5785
5824 5824 5823 5822 5820 5819 5819 5818 5818 5817 5816 5815 5814 5813 5812 5811 5810 5809 5808 5806 5805 5804 5803 5802 5800 5799 5798 5797 5795 5795 5794 5793 5792 5791 5790 5789 5788 5787 5785 5784 5783 5781 5780
5820 5819 5818 5817 5816 5815 5814 5814 5813 5813 5812 5811 5810 5809 5809 5808 5806 5805 5804 5803 5801 5800 5799 5797 5796 5795 5794 5793 5791 5790 5789 5788 5787 5786 5785 5784 5783 5782 5780 5779 5778 5776 5775
5816 5815 5814 5813 5812 5811 5810 5809 5809 5808 5807 5807 5806 5805 5804 5803 5802 5801 5800 5799 5797 5796 5795 5794 5792 5791 5790 5788 5787 5785 5784 5783 5782 5781 5780 5779 5778 5777 5775 5774 5772 5771 5769
5811 5810 5809 5808 5807 5806 5805 5804 5804 5803 5803 5802 5801 5800 5799 5798 5797 5796 5795 5794 5793 5792 5790 5789 5788 5786 5785 5783 5782 5780 5779 5778 5777 5777 5775 5774 5773 5772 5770 5769 5767 5765 5764
5806 5804 5803 5803 5802 5801 5800 5799 5799 5798 5798 5797 5796 5795 5794 5793 5792 5791 5790 5789 5788 5786 5785 5784 5782 5781 5779 5778 5776 5775 5773 5772 5771 5770 5769 5768 5767 5766 5765 5763 5761 5760 5758
5799 5799 5798 5797 5796 5795 5794 5794 5793 5792 5792 5791 5790 5789 5788 5787 5786 5785 5784 5783 5782 5780 5779 5777 5776 5774 5773 5771 5770 5769 5767 5766 5765 5764 5762 5762 5761 5760 5759 5757 5755 5753 5751
5793 5792 5791 5790 5789 5789 5788 5787 5787 5786 5786 5785 5784 5783 5782 5781 5780 5779 5778 5777 5775 5774 5772 5771 5769 5767 5766 5765 5763 5762 5761 5760 5758 5757 5756 5755 5754 5753 5752 5751 5749 5747 5745
5785 5785 5784 5783 5782 5782 5781 5780 5780 5780 5779 5779 5778 5776 5775 5774 5773 5771 5770 5769 5768 5767 5765 5764 5762 5761 5760 5758 5757 5756 5754 5753 5752 5751 5749 5748 5747 5746 5745 5744 5742 5740 5738